Regional Weather Roundup
Issued by NWS

Home | Current Version | Previous Version | Graphics & Text | Print | Product List | Glossary On
Versions: 1 2 3 4 5 6 7 8 9 10 11 12 13 14 15 16 17 18 19 20 21 22 23 24 25 26 27 28 29 30 31 32 33 34 35 36 37 38 39 40 41 42 43 44 45 46 47 48 49 50
681
ASUS43 KFSD 201102
RWRSD

WEATHER ROUNDUP FOR SOUTH DAKOTA
NATIONAL WEATHER SERVICE SIOUX FALLS SD
500 AM CST MON FEB 20 2017

NOTE: "FAIR" INDICATES FEW OR NO CLOUDS BELOW 12,000 FEET WITH NO
SIGNIFICANT WEATHER AND/OR OBSTRUCTIONS TO VISIBILITY.


SDZ001>005-009-010-012>017-201200-
NORTHWEST AND NORTH CENTRAL SOUTH DAKOTA

CITY           SKY/WX    TMP DP  RH WIND       PRES   REMARKS
BUFFALO          N/A     48  33  56 NW23      29.62R
FAITH            N/A     42  40  92 NW20      29.63R
MOBRIDGE       CLOUDY    40  34  79 NW10      29.52R
$$

SDZ012>016-024>037-041>051-057-063-072>074-201200-
SOUTHWEST AND SOUTH CENTRAL SOUTH DAKOTA

CITY           SKY/WX    TMP DP  RH WIND       PRES   REMARKS
RAPID CTY ARPT CLOUDY    48  35  60 NW26G38   29.69R
PIERRE         CLOUDY    46  41  82 S5        29.54R
CUSTER         CLOUDY    38  30  73 NW13G30   29.73R
ELLSWORTH AFB  PTCLDY    47  37  68 NW26G37   29.68R
PHILIP         CLOUDY    47  40  76 NW17G25   29.62R
PINE RIDGE     LGT RAIN  46  37  71 W10       29.69R
SPEARFISH      RAIN      41  37  87 W15       29.76R
WINNER         FAIR      55  48  77 SW15      29.57R
$$

SDZ004>011-016>023-039-040-201200-
NORTHEAST SOUTH DAKOTA

CITY           SKY/WX    TMP DP  RH WIND       PRES   REMARKS
ABERDEEN       CLOUDY    50  46  86 S14       29.57S
WATERTOWN      CLOUDY    48  47  96 S16       29.63S FOG
BROOKINGS      CLOUDY    51  49  92 S23       29.68F FOG
SISSETON         N/A     53  50  89 S22G28    29.59F
$$

SDZ017-020-022-023-036>040-048>070-201200-
SOUTHEAST SOUTH DAKOTA

CITY           SKY/WX    TMP DP  RH WIND       PRES   REMARKS
SIOUX FALLS    CLOUDY    53  51  93 SE17      29.74R
HURON          CLOUDY    52  50  93 S14       29.60R
CHAMBERLAIN    CLOUDY    55  51  88 S9        29.57F
MITCHELL       CLOUDY    53  51  93 SE18      29.63S
YANKTON        CLOUDY    52  48  87 SE8       29.69S
$$

ABBREVIATIONS USED IN REMARKS
   TC - TEMPERATURE IN CELSIUS
  WCI - WIND CHILL INDEX
   HX - HEAT INDEX
  VSB - VISIBILITY





USA.gov is the U.S. government's official web portal to all federal, state and local government web resources and services.